Location: Holyhead Bay
(53.3667°N, 4.6667°W)
Time: 19:15:01
(UTC+00:00)

MOS 1 Rocket - Pass Details

Date: 24 November 2020
Orbit: 614 x 830 km, 97.4° (Epoch: 16 January)

Event Time Altitude Azimuth Distance (km) Brightness Sun altitude
Exits shadow 19:43:14 61° 253° (WSW) 941 4.0 -31.0°
Drops below altitude 10° 19:48:02 10° 208° (SSW) 2,434 6.3 -31.7°
Sets 19:50:23 0° 206° (SSW) 3,358 7.0 -32.1°
